,,PA_Meas_PMT16A,,PR_Meas_QMR101_102,,RH_Meas_QMH101,,SR_Meas_QMS101,,TA_Meas_QMH101,,GenWind,,GenWind,
time,status,PA,status,PR,status,RH,status,SR,status,TA,status,DirAvg,status,SpdAvg,
2012-04-13, 00:00:04,VALID,917,VALID,0,VALID,97.229,VALID,0.107441,VALID,19.0579,VALID,148,VALID,0,
2012-04-13, 00:01:04,VALID,916.972,VALID,0,VALID,97.29,VALID,0,VALID,19.0969,VALID,148,VALID,0,
2012-04-13, 00:02:04,VALID,916.95,VALID,0,VALID,97.2824,VALID,0.107441,VALID,19.1164,VALID,148,VALID,0,
2012-04-13, 00:03:04,VALID,916.941,VALID,0,VALID,97.2748,VALID,0.107441,VALID,19.1164,VALID,148,VALID,0.814062,
2012-04-13, 00:04:04,VALID,916.94,VALID,0,VALID,97.2595,VALID,0,VALID,19.1359,VALID,148,VALID,0.644922,
2012-04-13, 00:05:04,VALID,916.92,VALID,0,VALID,97.2748,VALID,0.107441,VALID,19.1539,VALID,148,VALID,0.706641,
2012-04-13, 00:06:04,VALID,916.895,VALID,0,VALID,97.2977,VALID,0.107441,VALID,19.1944,VALID,148,VALID,0.514844,
2012-04-13, 00:07:04,VALID,916.869,VALID,0,VALID,97.2748,VALID,0,VALID,19.1929,VALID,148,VALID,0.0890625,
2012-04-13, 00:08:04,VALID,916.851,VALID,0,VALID,97.2824,VALID,0.107441,VALID,19.1944,VALID,148,VALID,0.153516,
2012-04-13, 00:09:04,VALID,916.873,VALID,0,VALID,97.2214,VALID,0,VALID,19.1749,VALID,148,VALID,0.558594,
2012-04-13, 00:10:04,VALID,916.83,VALID,0,VALID,97.2214,VALID,0.107441,VALID,19.2139,VALID,148,VALID,0.627344,
2012-04-13, 00:11:04,VALID,916.86,VALID,0,VALID,97.2595,VALID,0,VALID,19.2124,VALID,148,VALID,0.500391,
2012-04-13, 00:12:04,VALID,916.841,VALID,0,VALID,97.2519,VALID,0.107441,VALID,19.2334,VALID,148,VALID,0.512891,
2012-04-13, 00:13:04,VALID,916.83,VALID,0,VALID,97.229,VALID,0,VALID,19.2334,VALID,148,VALID,0.153516,
2012-04-13, 00:14:04,VALID,916.825,VALID,0,VALID,97.2138,VALID,0,VALID,19.2334,VALID,148,VALID,0.248047,
2012-04-13, 00:15:04,VALID,916.801,VALID,0,VALID,97.2519,VALID,0,VALID,19.2528,VALID,148,VALID,0.410156,
2012-04-13, 00:16:04,VALID,916.786,VALID,0,VALID,97.2443,VALID,0.107441,VALID,19.2528,VALID,148,VALID,0,
2012-04-13, 00:17:04,VALID,916.788,VALID,0,VALID,97.2519,VALID,0.107441,VALID,19.2723,VALID,148,VALID,0,
2012-04-13, 00:18:04,VALID,916.745,VALID,0,VALID,97.2519,VALID,0,VALID,19.3113,VALID,147,VALID,0.754687,
2012-04-13, 00:19:04,VALID,916.718,VALID,0,VALID,97.2443,VALID,0,VALID,19.3698,VALID,141,VALID,0.637891,
2012-04-13, 00:20:04,VALID,916.695,VALID,0,VALID,97.229,VALID,0.107441,VALID,19.4283,VALID,141,VALID,0.674219,
2012-04-13, 00:21:04,VALID,916.676,VALID,0,VALID,97.2672,VALID,0.107441,VALID,19.4478,VALID,141,VALID,0.676562,
2012-04-13, 00:22:04,VALID,916.688,VALID,0,VALID,97.2595,VALID,0.107441,VALID,19.4478,VALID,141,VALID,0.693359,
2012-04-13, 00:23:04,VALID,916.651,VALID,0,VALID,97.2443,VALID,0.107441,VALID,19.4658,VALID,141,VALID,0.448047,
2012-04-13, 00:24:04,VALID,916.673,VALID,0,VALID,97.1681,VALID,0,VALID,19.4478,VALID,141,VALID,0.245312,
2012-04-13, 00:25:04,VALID,916.66,VALID,0,VALID,96.9775,VALID,0,VALID,19.4478,VALID,141,VALID,0,
2012-04-13, 00:26:04,VALID,916.652,VALID,0,VALID,96.6192,VALID,0,VALID,19.3128,VALID,141,VALID,0,
2012-04-13, 00:27:04,VALID,916.621,VALID,0,VALID,96.7945,VALID,0,VALID,19.2723,VALID,141,VALID,0.268359,
2012-04-13, 00:28:04,VALID,916.627,VALID,0,VALID,97.0003,VALID,0,VALID,19.3323,VALID,141,VALID,0.666797,
2012-04-13, 00:29:04,VALID,916.631,VALID,0,VALID,96.9927,VALID,0,VALID,19.3128,VALID,141,VALID,0.714063,
2012-04-13, 00:30:04,VALID,916.644,VALID,0,VALID,96.9851,VALID,0,VALID,19.3128,VALID,141,VALID,0.733594,
2012-04-13, 00:31:04,VALID,916.656,VALID,0,VALID,97.0003,VALID,0,VALID,19.2933,VALID,141,VALID,0.310156,
2012-04-13, 00:32:04,VALID,916.638,VALID,0,VALID,96.8936,VALID,0,VALID,19.2543,VALID,141,VALID,0.154687,
2012-04-13, 00:33:04,VALID,916.643,VALID,0,VALID,96.9089,VALID,0,VALID,19.2543,VALID,141,VALID,0,
2012-04-13, 00:34:04,VALID,916.648,VALID,0,VALID,96.9317,VALID,0,VALID,19.2543,VALID,141,VALID,0,
2012-04-13, 00:35:04,VALID,916.655,VALID,0,VALID,96.9775,VALID,0,VALID,19.2543,VALID,141,VALID,0.276953,
2012-04-13, 00:36:04,VALID,916.606,VALID,0,VALID,96.9546,VALID,0,VALID,19.2543,VALID,141,VALID,0.324609,
2012-04-13, 00:37:04,VALID,916.608,VALID,0,VALID,96.7716,VALID,0,VALID,19.1958,VALID,141,VALID,0.189063,
2012-04-13, 00:38:04,VALID,916.6,VALID,0,VALID,96.9546,VALID,0,VALID,19.1958,VALID,141,VALID,0.428516,
2012-04-13, 00:39:04,VALID,916.603,VALID,0,VALID,96.9546,VALID,0,VALID,19.1944,VALID,141,VALID,0.321094,
2012-04-13, 00:40:04,VALID,916.617,VALID,0,VALID,96.8631,VALID,0,VALID,19.1554,VALID,141,VALID,0.186719,
2012-04-13, 00:41:04,VALID,916.604,VALID,0,VALID,96.9165,VALID,0,VALID,19.1359,VALID,141,VALID,0.235547,
2012-04-13, 00:42:04,VALID,916.574,VALID,0,VALID,96.9775,VALID,0,VALID,19.1749,VALID,141,VALID,0.679297,
2012-04-13, 00:43:04,VALID,916.559,VALID,0,VALID,96.9927,VALID,0,VALID,19.1749,VALID,141,VALID,0.147266,
2012-04-13, 00:44:04,VALID,916.555,VALID,0,VALID,96.947,VALID,0,VALID,19.1359,VALID,141,VALID,0.126563,
2012-04-13, 00:45:04,VALID,916.534,VALID,0,VALID,96.9089,VALID,0.107441,VALID,19.1164,VALID,141,VALID,0,
2012-04-13, 00:46:04,VALID,916.487,VALID,0,VALID,96.886,VALID,0.107441,VALID,19.1164,VALID,141,VALID,0,
2012-04-13, 00:47:04,VALID,916.492,VALID,0,VALID,96.947,VALID,0,VALID,19.0969,VALID,141,VALID,0.625,
2012-04-13, 00:48:04,VALID,916.519,VALID,0,VALID,97.0385,VALID,0,VALID,19.1359,VALID,141,VALID,0.987891,
2012-04-13, 00:49:04,VALID,916.459,VALID,0,VALID,97.229,VALID,0,VALID,19.2933,VALID,141,VALID,0.800781,
2012-04-13, 00:50:04,VALID,916.483,VALID,0,VALID,97.2138,VALID,0,VALID,19.2918,VALID,141,VALID,0.9,
2012-04-13, 00:51:04,VALID,916.447,VALID,0,VALID,97.1681,VALID,0,VALID,19.3113,VALID,141,VALID,0.807031,
2012-04-13, 00:52:04,VALID,916.428,VALID,0,VALID,97.1833,VALID,0,VALID,19.3113,VALID,141,VALID,0.899609,
2012-04-13, 00:53:04,VALID,916.416,VALID,0,VALID,97.0461,VALID,0,VALID,19.2528,VALID,141,VALID,1.0832,
2012-04-13, 00:54:04,VALID,916.442,VALID,0,VALID,97.0613,VALID,0,VALID,19.2528,VALID,141,VALID,1.31094,
2012-04-13, 00:55:04,VALID,916.409,VALID,0,VALID,97.0613,VALID,0,VALID,19.2139,VALID,141,VALID,1.13906,
2012-04-13, 00:56:04,VALID,916.397,VALID,0,VALID,97.069,VALID,0,VALID,19.1944,VALID,141,VALID,1.22344,
2012-04-13, 00:57:04,VALID,916.398,VALID,0,VALID,97.0766,VALID,0,VALID,19.1749,VALID,141,VALID,1.06172,
2012-04-13, 00:58:04,VALID,916.38,VALID,0,VALID,97.0994,VALID,0,VALID,19.1749,VALID,141,VALID,1.02227,
2012-04-13, 00:59:04,VALID,916.374,VALID,0,VALID,97.0766,VALID,0,VALID,19.1944,VALID,141,VALID,1.01328,
2012-04-13, 01:00:04,VALID,916.386,VALID,0,VALID,97.1528,VALID,0,VALID,19.1944,VALID,141,VALID,0.947656,
2012-04-13, 01:01:04,VALID,916.393,VALID,0,VALID,97.1604,VALID,0,VALID,19.2139,VALID,141,VALID,0.815625,
2012-04-13, 01:02:04,VALID,916.386,VALID,0,VALID,97.1299,VALID,0,VALID,19.1749,VALID,141,VALID,0.316016,
2012-04-13, 01:03:04,VALID,916.383,VALID,0,VALID,97.1376,VALID,0,VALID,19.1749,VALID,141,VALID,0.632031,
2012-04-13, 01:04:04,VALID,916.366,VALID,0,VALID,97.1299,VALID,0,VALID,19.1749,VALID,141,VALID,0.587109,
2012-04-13, 01:05:04,VALID,916.348,VALID,0,VALID,97.1452,VALID,0,VALID,19.1554,VALID,141,VALID,0.605078,
2012-04-13, 01:06:04,VALID,916.345,VALID,0,VALID,97.1376,VALID,0,VALID,19.1554,VALID,141,VALID,0.586328,
2012-04-13, 01:07:04,VALID,916.323,VALID,0,VALID,97.1528,VALID,0,VALID,19.1554,VALID,141,VALID,0.442578,
2012-04-13, 01:08:04,VALID,916.323,VALID,0,VALID,97.1833,VALID,0,VALID,19.1554,VALID,141,VALID,0.505078,
2012-04-13, 01:09:04,VALID,916.309,VALID,0,VALID,97.1986,VALID,0,VALID,19.1749,VALID,141,VALID,0.642578,
2012-04-13, 01:10:04,VALID,916.294,VALID,0,VALID,97.2062,VALID,0,VALID,19.1749,VALID,141,VALID,0.647656,
2012-04-13, 01:11:04,VALID,916.278,VALID,0,VALID,97.1757,VALID,0,VALID,19.1749,VALID,141,VALID,0.313281,
2012-04-13, 01:12:04,VALID,916.245,VALID,0,VALID,97.1833,VALID,0,VALID,19.1749,VALID,141,VALID,0.707422,
2012-04-13, 01:13:04,VALID,916.277,VALID,0,VALID,97.2062,VALID,0.107441,VALID,19.1944,VALID,141,VALID,0.658984,
2012-04-13, 01:14:04,VALID,916.247,VALID,0,VALID,97.2214,VALID,0,VALID,19.2139,VALID,141,VALID,0.553516,
2012-04-13, 01:15:04,VALID,916.223,VALID,0,VALID,97.229,VALID,0,VALID,19.1944,VALID,141,VALID,0.345703,
2012-04-13, 01:16:04,VALID,916.244,VALID,0,VALID,97.229,VALID,0,VALID,19.2334,VALID,141,VALID,0.316016,
2012-04-13, 01:17:04,VALID,916.225,VALID,0,VALID,97.2672,VALID,0,VALID,19.2723,VALID,141,VALID,0.402344,
2012-04-13, 01:18:04,VALID,916.212,VALID,0,VALID,97.2595,VALID,0,VALID,19.2528,VALID,141,VALID,0.370313,
2012-04-13, 01:19:04,VALID,916.182,VALID,0,VALID,97.2748,VALID,0,VALID,19.2723,VALID,141,VALID,0.535547,
2012-04-13, 01:20:04,VALID,916.203,VALID,0,VALID,97.2367,VALID,0,VALID,19.3113,VALID,141,VALID,0.514063,
2012-04-13, 01:21:04,VALID,916.203,VALID,0,VALID,97.2672,VALID,0,VALID,19.3308,VALID,141,VALID,0.122656,
2012-04-13, 01:22:04,VALID,916.184,VALID,0,VALID,97.1986,VALID,0,VALID,19.2918,VALID,141,VALID,0,
2012-04-13, 01:23:04,VALID,916.143,VALID,0,VALID,97.2519,VALID,0,VALID,19.3308,VALID,141,VALID,0,
2012-04-13, 01:24:04,VALID,916.156,VALID,0,VALID,97.229,VALID,0,VALID,19.3113,VALID,141,VALID,0,
2012-04-13, 01:25:04,VALID,916.163,VALID,0,VALID,97.2062,VALID,0,VALID,19.3113,VALID,141,VALID,0,
2012-04-13, 01:26:04,VALID,916.141,VALID,0,VALID,97.0232,VALID,0,VALID,19.2334,VALID,141,VALID,0,
2012-04-13, 01:27:04,VALID,916.124,VALID,0,VALID,97.0308,VALID,0,VALID,19.1749,VALID,141,VALID,0,
2012-04-13, 01:28:04,VALID,916.132,VALID,0,VALID,97.1986,VALID,0,VALID,19.2153,VALID,141,VALID,0,
2012-04-13, 01:29:04,VALID,916.144,VALID,0,VALID,97.2595,VALID,0,VALID,19.2334,VALID,141,VALID,0,
2012-04-13, 01:30:04,VALID,916.113,VALID,0,VALID,97.2748,VALID,0,VALID,19.2918,VALID,141,VALID,0,
2012-04-13, 01:31:04,VALID,916.101,VALID,0,VALID,97.2672,VALID,0,VALID,19.3113,VALID,141,VALID,0,
2012-04-13, 01:32:04,VALID,916.112,VALID,0,VALID,97.2519,VALID,0,VALID,19.2709,VALID,141,VALID,0,
2012-04-13, 01:33:04,VALID,916.11,VALID,0,VALID,97.1223,VALID,0.107441,VALID,19.2543,VALID,141,VALID,0,
2012-04-13, 01:34:04,VALID,916.119,VALID,0,VALID,97.1452,VALID,0,VALID,19.1749,VALID,141,VALID,1.04258,
2012-04-13, 01:35:04,VALID,916.078,VALID,0,VALID,97.3129,VALID,0,VALID,19.2528,VALID,141,VALID,0.462891,
2012-04-13, 01:36:04,VALID,916.102,VALID,0,VALID,97.3129,VALID,0,VALID,19.3308,VALID,141,VALID,0.285547,
2012-04-13, 01:37:04,VALID,916.079,VALID,0,VALID,97.3205,VALID,0,VALID,19.3698,VALID,141,VALID,0,
2012-04-13, 01:38:04,VALID,916.062,VALID,0,VALID,97.3205,VALID,0,VALID,19.4088,VALID,141,VALID,0,
2012-04-13, 01:39:04,VALID,915.988,VALID,0,VALID,97.3434,VALID,0,VALID,19.4478,VALID,141,VALID,0,
2012-04-13, 01:40:04,VALID,915.986,VALID,0,VALID,97.3586,VALID,0,VALID,19.4478,VALID,141,VALID,0,
2012-04-13, 01:41:04,VALID,915.974,VALID,0,VALID,97.3281,VALID,0,VALID,19.4883,VALID,141,VALID,0,
2012-04-13, 01:42:04,VALID,915.92,VALID,0,VALID,97.3358,VALID,0.107441,VALID,19.4868,VALID,141,VALID,0,
2012-04-13, 01:43:04,VALID,915.909,VALID,0,VALID,97.3205,VALID,0,VALID,19.4868,VALID,141,VALID,0,
2012-04-13, 01:44:04,VALID,915.911,VALID,0,VALID,97.3053,VALID,0,VALID,19.5063,VALID,141,VALID,0,
2012-04-13, 01:45:04,VALID,915.858,VALID,0,VALID,97.3053,VALID,0.107441,VALID,19.4658,VALID,141,VALID,0.683203,
2012-04-13, 01:46:04,VALID,915.876,VALID,0,VALID,97.3205,VALID,0,VALID,19.5063,VALID,141,VALID,0.851563,
2012-04-13, 01:47:04,VALID,915.857,VALID,0,VALID,97.3053,VALID,0,VALID,19.5063,VALID,141,VALID,0.393359,
2012-04-13, 01:48:04,VALID,915.854,VALID,0,VALID,97.3205,VALID,0,VALID,19.5258,VALID,141,VALID,0.454297,
2012-04-13, 01:49:04,VALID,915.873,VALID,0,VALID,97.29,VALID,0,VALID,19.5063,VALID,141,VALID,0.282813,
2012-04-13, 01:50:04,VALID,915.851,VALID,0,VALID,97.2977,VALID,0,VALID,19.5453,VALID,141,VALID,0.252344,
2012-04-13, 01:51:04,VALID,915.844,VALID,0,VALID,97.29,VALID,0,VALID,19.5648,VALID,141,VALID,0.355469,
2012-04-13, 01:52:04,VALID,915.841,VALID,0,VALID,97.3129,VALID,0,VALID,19.5648,VALID,141,VALID,0,
2012-04-13, 01:53:04,VALID,915.813,VALID,0,VALID,97.29,VALID,0,VALID,19.5858,VALID,141,VALID,0,
2012-04-13, 01:54:04,VALID,915.803,VALID,0,VALID,97.3129,VALID,0,VALID,19.5258,VALID,141,VALID,0,
2012-04-13, 01:55:04,VALID,915.816,VALID,0,VALID,97.3053,VALID,0,VALID,19.5453,VALID,141,VALID,0,
2012-04-13, 01:56:04,VALID,915.768,VALID,0,VALID,97.2977,VALID,0,VALID,19.5648,VALID,141,VALID,0,
2012-04-13, 01:57:04,VALID,915.758,VALID,0,VALID,97.2824,VALID,0,VALID,19.5258,VALID,141,VALID,0,
2012-04-13, 01:58:04,VALID,915.74,VALID,0,VALID,97.2824,VALID,0,VALID,19.4673,VALID,141,VALID,0,
2012-04-13, 01:59:04,VALID,915.722,VALID,0,VALID,97.2748,VALID,0,VALID,19.4673,VALID,141,VALID,0,
2012-04-13, 02:00:04,VALID,915.713,VALID,0,VALID,97.2748,VALID,0,VALID,19.4868,VALID,141,VALID,0,
2012-04-13, 02:01:04,VALID,915.665,VALID,0,VALID,97.2977,VALID,0,VALID,19.4868,VALID,141,VALID,0,
2012-04-13, 02:02:04,VALID,915.666,VALID,0,VALID,97.29,VALID,0,VALID,19.5063,VALID,141,VALID,0,
2012-04-13, 02:03:04,VALID,915.626,VALID,0,VALID,97.3281,VALID,0,VALID,19.5258,VALID,141,VALID,0.874219,
2012-04-13, 02:04:04,VALID,915.628,VALID,0,VALID,97.3281,VALID,0,VALID,19.4868,VALID,141,VALID,0.582812,
2012-04-13, 02:05:04,VALID,915.612,VALID,0,VALID,97.29,VALID,0,VALID,19.4868,VALID,141,VALID,0.823828,
2012-04-13, 02:06:04,VALID,915.547,VALID,0,VALID,97.3205,VALID,0,VALID,19.4868,VALID,141,VALID,0.776563,
2012-04-13, 02:07:04,VALID,915.522,VALID,0,VALID,97.3053,VALID,0,VALID,19.4463,VALID,141,VALID,0.61875,
2012-04-13, 02:08:04,VALID,915.533,VALID,0,VALID,97.3129,VALID,0,VALID,19.4478,VALID,141,VALID,0.768359,
2012-04-13, 02:09:04,VALID,915.548,VALID,0,VALID,97.3129,VALID,0,VALID,19.4283,VALID,141,VALID,0.818359,
2012-04-13, 02:10:04,VALID,915.529,VALID,0,VALID,97.3205,VALID,0,VALID,19.4478,VALID,141,VALID,0.677344,
2012-04-13, 02:11:04,VALID,915.525,VALID,0,VALID,97.3053,VALID,0,VALID,19.4283,VALID,141,VALID,0.635156,
2012-04-13, 02:12:04,VALID,915.566,VALID,0,VALID,97.2977,VALID,0,VALID,19.3893,VALID,141,VALID,0.601172,
2012-04-13, 02:13:04,VALID,915.581,VALID,0,VALID,97.3205,VALID,0,VALID,19.3503,VALID,141,VALID,0.475781,
2012-04-13, 02:14:04,VALID,915.589,VALID,0,VALID,97.351,VALID,0,VALID,19.3308,VALID,141,VALID,0.348437,
2012-04-13, 02:15:04,VALID,915.594,VALID,0,VALID,97.3358,VALID,0,VALID,19.3503,VALID,141,VALID,0.0855469,
2012-04-13, 02:16:04,VALID,915.618,VALID,0,VALID,97.351,VALID,0,VALID,19.3503,VALID,141,VALID,0.587891,
2012-04-13, 02:17:04,VALID,915.645,VALID,0,VALID,97.3586,VALID,0,VALID,19.3503,VALID,141,VALID,0.557813,
2012-04-13, 02:18:04,VALID,915.613,VALID,0,VALID,97.351,VALID,0,VALID,19.3503,VALID,141,VALID,0.49375,
2012-04-13, 02:19:04,VALID,915.589,VALID,0,VALID,97.3586,VALID,0,VALID,19.3503,VALID,141,VALID,0.598437,
2012-04-13, 02:20:04,VALID,915.604,VALID,0,VALID,97.3815,VALID,0,VALID,19.3489,VALID,141,VALID,0.780469,
2012-04-13, 02:21:04,VALID,915.616,VALID,0,VALID,97.3891,VALID,0,VALID,19.3893,VALID,140,VALID,0.744141,
2012-04-13, 02:22:04,VALID,915.589,VALID,0,VALID,97.4044,VALID,0,VALID,19.4103,VALID,141,VALID,0.717969,
2012-04-13, 02:23:04,VALID,915.586,VALID,0,VALID,97.3968,VALID,0,VALID,19.3698,VALID,141,VALID,0.852344,
2012-04-13, 02:24:04,VALID,915.57,VALID,0,VALID,97.3891,VALID,0,VALID,19.3698,VALID,141,VALID,0.992578,
2012-04-13, 02:25:04,VALID,915.571,VALID,0,VALID,97.3891,VALID,0,VALID,19.3503,VALID,141,VALID,1.01875,
2012-04-13, 02:26:04,VALID,915.582,VALID,0,VALID,97.3968,VALID,0,VALID,19.3698,VALID,141,VALID,0.797266,
2012-04-13, 02:27:04,VALID,915.58,VALID,0,VALID,97.4196,VALID,0,VALID,19.3503,VALID,141,VALID,0.682422,
2012-04-13, 02:28:04,VALID,915.58,VALID,0,VALID,97.4196,VALID,0,VALID,19.3893,VALID,141,VALID,0.800391,
2012-04-13, 02:29:04,VALID,915.593,VALID,0,VALID,97.4273,VALID,0,VALID,19.3879,VALID,141,VALID,0.657031,
2012-04-13, 02:30:04,VALID,915.586,VALID,0,VALID,97.4577,VALID,0,VALID,19.4088,VALID,141,VALID,0.447266,
2012-04-13, 02:31:04,VALID,915.584,VALID,0,VALID,97.4196,VALID,0,VALID,19.3698,VALID,141,VALID,0.103125,
2012-04-13, 02:32:04,VALID,915.573,VALID,0,VALID,97.4196,VALID,0,VALID,19.3308,VALID,141,VALID,0.00117188,
2012-04-13, 02:33:04,VALID,915.545,VALID,0,VALID,97.4196,VALID,0.107441,VALID,19.2918,VALID,141,VALID,0.0183594,
2012-04-13, 02:34:04,VALID,915.538,VALID,0,VALID,97.3968,VALID,0,VALID,19.2334,VALID,141,VALID,0,
2012-04-13, 02:35:04,VALID,915.537,VALID,0,VALID,97.412,VALID,0,VALID,19.1944,VALID,141,VALID,0,
2012-04-13, 02:36:04,VALID,915.535,VALID,0,VALID,97.3968,VALID,0,VALID,19.1749,VALID,141,VALID,0,
2012-04-13, 02:37:04,VALID,915.569,VALID,0,VALID,97.4044,VALID,0,VALID,19.1749,VALID,141,VALID,0,
2012-04-13, 02:38:04,VALID,915.568,VALID,0,VALID,97.3968,VALID,0,VALID,19.1749,VALID,141,VALID,0,
2012-04-13, 02:39:04,VALID,915.596,VALID,0,VALID,97.4273,VALID,0,VALID,19.1749,VALID,141,VALID,0,
2012-04-13, 02:40:04,VALID,915.595,VALID,0,VALID,97.412,VALID,0,VALID,19.1944,VALID,141,VALID,0,
2012-04-13, 02:41:04,VALID,915.613,VALID,0,VALID,97.4425,VALID,0.107441,VALID,19.2319,VALID,141,VALID,0,
2012-04-13, 02:42:04,VALID,915.599,VALID,0,VALID,97.4349,VALID,0,VALID,19.2528,VALID,141,VALID,0,
2012-04-13, 02:43:04,VALID,915.621,VALID,0,VALID,97.473,VALID,0,VALID,19.2918,VALID,141,VALID,0,
2012-04-13, 02:44:04,VALID,915.598,VALID,0,VALID,97.4577,VALID,0,VALID,19.2918,VALID,141,VALID,0,
2012-04-13, 02:45:04,VALID,915.616,VALID,0,VALID,97.4577,VALID,0,VALID,19.3113,VALID,141,VALID,0.296484,
2012-04-13, 02:46:04,VALID,915.58,VALID,0,VALID,97.473,VALID,0,VALID,19.3113,VALID,141,VALID,0.30625,
2012-04-13, 02:47:04,VALID,915.622,VALID,0,VALID,97.473,VALID,0,VALID,19.3503,VALID,141,VALID,0.0492188,
2012-04-13, 02:48:04,VALID,915.63,VALID,0,VALID,97.4882,VALID,0,VALID,19.3893,VALID,141,VALID,0,
2012-04-13, 02:49:04,VALID,915.618,VALID,0,VALID,97.4806,VALID,0.107441,VALID,19.3698,VALID,141,VALID,0,
2012-04-13, 02:50:04,VALID,915.629,VALID,0,VALID,97.4959,VALID,0,VALID,19.3099,VALID,141,VALID,0,
2012-04-13, 02:51:04,VALID,915.653,VALID,0,VALID,97.4882,VALID,0,VALID,19.3308,VALID,141,VALID,0,
2012-04-13, 02:52:04,VALID,915.685,VALID,0,VALID,97.4959,VALID,0,VALID,19.3503,VALID,141,VALID,0,
2012-04-13, 02:53:04,VALID,915.688,VALID,0,VALID,97.5187,VALID,0,VALID,19.3113,VALID,141,VALID,0,
2012-04-13, 02:54:04,VALID,915.71,VALID,0,VALID,97.4654,VALID,0.107441,VALID,19.3113,VALID,141,VALID,0,
2012-04-13, 02:55:04,VALID,915.715,VALID,0,VALID,97.4882,VALID,0.107441,VALID,19.2709,VALID,141,VALID,0.333594,
2012-04-13, 02:56:04,VALID,915.703,VALID,0,VALID,97.473,VALID,0.107441,VALID,19.2139,VALID,141,VALID,0.6625,
2012-04-13, 02:57:04,VALID,915.68,VALID,0,VALID,97.4654,VALID,0,VALID,19.0969,VALID,141,VALID,0.653906,
2012-04-13, 02:58:04,VALID,915.683,VALID,0,VALID,97.4349,VALID,0.107441,VALID,19.0954,VALID,141,VALID,0.346484,
2012-04-13, 02:59:04,VALID,915.657,VALID,0,VALID,97.4273,VALID,0.107441,VALID,19.0954,VALID,141,VALID,0.226563,
2012-04-13, 03:00:04,VALID,915.645,VALID,0,VALID,97.4425,VALID,0,VALID,19.0564,VALID,141,VALID,0.0277344,
2012-04-13, 03:01:04,VALID,915.671,VALID,0,VALID,97.4196,VALID,0.107441,VALID,19.0369,VALID,141,VALID,0,
2012-04-13, 03:02:04,VALID,915.637,VALID,0,VALID,97.4349,VALID,0,VALID,19.0384,VALID,141,VALID,0.00234375,
2012-04-13, 03:03:04,VALID,915.665,VALID,0,VALID,97.4273,VALID,0,VALID,19.0579,VALID,141,VALID,0,
2012-04-13, 03:04:04,VALID,915.656,VALID,0,VALID,97.4349,VALID,0,VALID,19.0369,VALID,141,VALID,0.315625,
2012-04-13, 03:05:04,VALID,915.688,VALID,0,VALID,97.4654,VALID,0,VALID,19.0774,VALID,141,VALID,0.379297,
2012-04-13, 03:06:04,VALID,915.671,VALID,0,VALID,97.4806,VALID,0,VALID,19.1554,VALID,141,VALID,0.538281,
2012-04-13, 03:07:04,VALID,915.684,VALID,0,VALID,97.4959,VALID,0,VALID,19.1944,VALID,141,VALID,0.346875,
2012-04-13, 03:08:04,VALID,915.671,VALID,0,VALID,97.5187,VALID,0,VALID,19.2139,VALID,141,VALID,0.184766,
2012-04-13, 03:09:04,VALID,915.673,VALID,0,VALID,97.5035,VALID,0.107441,VALID,19.1944,VALID,140,VALID,0.390234,
2012-04-13, 03:10:04,VALID,915.664,VALID,0,VALID,97.5187,VALID,0,VALID,19.2334,VALID,140,VALID,0.672266,
2012-04-13, 03:11:04,VALID,915.673,VALID,0,VALID,97.4959,VALID,0.107441,VALID,19.1944,VALID,141,VALID,0.510547,
2012-04-13, 03:12:04,VALID,915.627,VALID,0,VALID,97.4959,VALID,0,VALID,19.1749,VALID,141,VALID,0.84375,
2012-04-13, 03:13:04,VALID,915.602,VALID,0,VALID,97.534,VALID,0,VALID,19.1944,VALID,141,VALID,0.742578,
2012-04-13, 03:14:04,VALID,915.587,VALID,0,VALID,97.5187,VALID,0,VALID,19.1944,VALID,141,VALID,0.787891,
2012-04-13, 03:15:04,VALID,915.586,VALID,0,VALID,97.5187,VALID,0,VALID,19.2543,VALID,141,VALID,0.703125,
2012-04-13, 03:16:04,VALID,915.587,VALID,0,VALID,97.534,VALID,0,VALID,19.2528,VALID,141,VALID,0.850391,
2012-04-13, 03:17:04,VALID,915.575,VALID,0,VALID,97.5111,VALID,0,VALID,19.2543,VALID,141,VALID,0.709375,
2012-04-13, 03:18:04,VALID,915.571,VALID,0,VALID,97.5264,VALID,0,VALID,19.2139,VALID,141,VALID,0.662109,
2012-04-13, 03:19:04,VALID,915.599,VALID,0,VALID,97.5187,VALID,0,VALID,19.1749,VALID,141,VALID,0.762891,
2012-04-13, 03:20:04,VALID,915.582,VALID,0,VALID,97.5035,VALID,0,VALID,19.1359,VALID,141,VALID,0.648438,
2012-04-13, 03:21:04,VALID,915.597,VALID,0,VALID,97.5264,VALID,0.107441,VALID,19.1359,VALID,141,VALID,0.670703,
2012-04-13, 03:22:04,VALID,915.589,VALID,0,VALID,97.5035,VALID,0,VALID,19.1164,VALID,141,VALID,0.775,
2012-04-13, 03:23:04,VALID,915.605,VALID,0,VALID,97.5187,VALID,0,VALID,19.0774,VALID,141,VALID,0.780078,
2012-04-13, 03:24:04,VALID,915.605,VALID,0,VALID,97.5187,VALID,0,VALID,19.0579,VALID,141,VALID,0.875391,
2012-04-13, 03:25:04,VALID,915.614,VALID,0,VALID,97.5187,VALID,0,VALID,19.0788,VALID,141,VALID,0.971094,
2012-04-13, 03:26:04,VALID,915.617,VALID,0,VALID,97.5264,VALID,0,VALID,19.0788,VALID,141,VALID,0.819141,
2012-04-13, 03:27:04,VALID,915.629,VALID,0,VALID,97.5264,VALID,0,VALID,19.0579,VALID,140,VALID,0.792969,
2012-04-13, 03:28:04,VALID,915.658,VALID,0,VALID,97.5416,VALID,0,VALID,19.0579,VALID,141,VALID,0.441016,
2012-04-13, 03:29:04,VALID,915.665,VALID,0,VALID,97.5492,VALID,0,VALID,19.0384,VALID,141,VALID,0.580859,
2012-04-13, 03:30:04,VALID,915.659,VALID,0,VALID,97.5645,VALID,0,VALID,19.0189,VALID,141,VALID,0.348828,
2012-04-13, 03:31:04,VALID,915.684,VALID,0,VALID,97.5416,VALID,0,VALID,18.9994,VALID,141,VALID,0.380469,
2012-04-13, 03:32:04,VALID,915.691,VALID,0,VALID,97.5797,VALID,0,VALID,18.9799,VALID,141,VALID,0.340625,
2012-04-13, 03:33:04,VALID,915.669,VALID,0,VALID,97.5645,VALID,0,VALID,18.9994,VALID,141,VALID,0.333984,
2012-04-13, 03:34:04,VALID,915.655,VALID,0,VALID,97.5645,VALID,0,VALID,18.9994,VALID,141,VALID,0.295703,
2012-04-13, 03:35:04,VALID,915.699,VALID,0,VALID,97.5721,VALID,0,VALID,18.9785,VALID,141,VALID,0.447266,
2012-04-13, 03:36:04,VALID,915.634,VALID,0,VALID,97.5797,VALID,0,VALID,19.0384,VALID,141,VALID,0.703516,
2012-04-13, 03:37:04,VALID,915.64,VALID,0,VALID,97.5873,VALID,0,VALID,19.0579,VALID,141,VALID,0.551562,
2012-04-13, 03:38:04,VALID,915.636,VALID,0,VALID,97.6026,VALID,0,VALID,19.0774,VALID,141,VALID,0.353906,
2012-04-13, 03:39:04,VALID,915.603,VALID,0,VALID,97.595,VALID,0,VALID,19.0384,VALID,141,VALID,0.474219,
2012-04-13, 03:40:04,VALID,915.611,VALID,0,VALID,97.6026,VALID,0,VALID,18.9994,VALID,141,VALID,0.679688,
2012-04-13, 03:41:04,VALID,915.616,VALID,0,VALID,97.5873,VALID,0,VALID,19.0189,VALID,141,VALID,0.784766,
2012-04-13, 03:42:04,VALID,915.614,VALID,0,VALID,97.6178,VALID,0.107441,VALID,19.0398,VALID,141,VALID,0.866406,
2012-04-13, 03:43:04,VALID,915.611,VALID,0,VALID,97.6026,VALID,0,VALID,19.0203,VALID,141,VALID,0.767187,
2012-04-13, 03:44:04,VALID,915.631,VALID,0,VALID,97.6026,VALID,0,VALID,18.9994,VALID,141,VALID,0.789844,
2012-04-13, 03:45:04,VALID,915.644,VALID,0,VALID,97.595,VALID,0,VALID,19.0203,VALID,141,VALID,0.973047,
2012-04-13, 03:46:04,VALID,915.612,VALID,0,VALID,97.6178,VALID,0,VALID,18.9799,VALID,141,VALID,0.758203,